Location: Augsburg
(48.3836°N, 10.8929°E)
Time: 04:34:20
(UTC+01:00)

Tiangong 2 - Visible Passes

Search period start: 23 November 2017 00:00
Search period end: 03 December 2017 00:00
Orbit: 386 x 392 km, 42.8° (Epoch: 22 November)

Date Brightness Start Highest point End Pass type
(mag) Time Alt. Az. Time Alt. Az. Time Alt. Az.
27 Nov 4.0 06:50:12 10° SSW 06:52:16 16° SSE 06:54:21 10° ESE visible
28 Nov 4.1 05:53:09 10° S 05:54:18 11° SSE 05:55:26 10° SE visible
29 Nov 3.4 06:29:53 10° SW 06:32:25 21° SSE 06:34:56 10° ESE visible
30 Nov 3.5 05:33:26 15° S 05:34:22 17° SSE 05:36:29 10° ESE visible
01 Dec 2.9 06:10:29 14° SW 06:12:32 26° S 06:15:17 10° ESE visible
02 Dec 3.4 05:15:07 20° SE 05:15:07 20° SE 05:16:59 10° ESE visible
02 Dec 2.7 06:47:57 10° WSW 06:50:47 29° S 06:53:38 10° ESE visible
